Theta_e
323 320 323 321 308 307 299 300 304 303 304 308 307 307 306 307 304 301 322 329 335 339 347 352 353 355 355 354 353 353 353 352 352 352 351 350 349 346 346 344 343 341 340 340 339 338 337 337 337
320 318 321 314 303 297 298 303 302 304 306 308 308 308 307 305 311 315 322 330 336 340 348 352 349 353 353 353 353 353 352 351 351 350 350 350 348 346 345 343 342 341 339 338 337 334 333 332 333
317 313 314 309 304 297 298 302 304 305 307 307 307 309 308 308 314 317 325 331 338 341 348 351 349 352 353 353 352 352 352 352 350 349 348 347 347 347 345 342 341 339 338 337 336 333 329 327 328
317 316 310 304 298 300 300 302 304 305 307 307 307 305 309 314 317 324 327 333 337 340 347 347 349 353 352 352 352 351 352 351 349 348 347 347 347 344 344 340 338 337 336 335 334 331 327 324 324
315 313 305 300 299 300 302 303 304 304 305 307 307 305 307 313 321 327 330 335 336 340 346 349 347 348 349 350 350 349 350 350 349 350 348 348 346 342 340 339 338 336 335 333 332 329 325 321 322
311 309 301 298 299 301 303 304 304 304 304 306 305 306 307 313 316 325 330 333 336 339 343 346 341 344 345 347 348 348 348 349 348 347 346 346 344 341 338 337 336 335 333 332 331 328 323 319 320
307 305 300 299 299 299 302 304 303 303 304 305 307 303 308 310 316 324 327 329 337 339 342 345 346 346 337 343 344 344 345 346 346 345 346 344 342 341 337 337 335 334 333 331 329 326 322 318 317
309 306 298 299 298 299 303 303 304 304 303 307 308 303 304 308 314 322 322 320 319 321 332 340 344 343 345 349 338 339 341 342 342 342 340 337 336 335 333 332 335 334 332 331 328 325 322 318 315
305 301 297 298 298 300 304 303 305 306 305 306 306 304 303 306 311 313 313 312 312 311 312 316 328 337 340 344 342 334 335 337 337 338 332 332 343 339 335 328 332 333 333 331 328 325 320 313 305
304 300 297 300 302 302 303 303 304 304 304 304 303 304 304 306 307 307 306 306 307 308 309 310 312 319 334 339 342 344 346 347 346 345 345 344 343 339 332 326 327 330 330 330 327 323 316 316 309
302 299 299 300 303 304 303 303 304 303 301 303 302 301 302 303 303 303 304 304 304 306 309 310 311 312 319 336 340 343 343 344 345 344 343 342 341 335 331 330 329 330 323 326 325 322 324 319 313
300 301 301 303 304 303 302 303 302 302 302 301 301 301 301 301 301 301 302 303 304 306 308 311 312 314 314 330 338 340 340 341 341 343 339 339 335 332 331 330 329 328 326 324 322 322 323 320 314
301 302 302 304 303 302 301 301 301 299 299 300 300 299 299 299 299 300 301 303 304 305 308 310 314 317 318 320 336 338 338 338 337 334 334 335 336 332 330 328 328 327 327 325 323 320 323 321 317
301 300 301 302 301 301 300 299 301 297 300 299 299 298 297 297 297 300 300 301 302 304 307 311 312 319 318 321 334 335 333 329 327 326 327 327 329 329 329 328 326 331 328 323 320 318 318 322 318
300 298 301 300 299 299 300 297 297 298 299 297 296 296 296 296 297 297 298 299 300 304 304 304 309 321 322 326 320 319 318 318 317 317 317 321 323 323 321 322 322 320 319 316 312 311 311 311 314
298 298 296 298 298 298 299 297 296 297 298 296 295 295 295 295 295 296 297 299 301 302 300 303 311 315 315 314 313 312 312 311 311 313 314 314 317 320 320 315 314 315 314 312 311 311 310 308 306
296 295 293 295 298 298 298 296 296 296 297 295 295 294 294 294 295 296 297 298 300 299 300 303 307 309 309 308 306 304 304 303 303 305 304 307 312 313 314 313 312 313 312 308 309 305 307 308 306
295 293 293 294 297 297 296 297 295 295 295 294 294 293 293 293 292 294 295 297 299 299 299 301 302 306 306 305 304 303 301 302 302 303 304 305 307 310 309 306 307 310 306 305 309 305 306 302 302
296 294 294 294 295 296 297 297 298 294 294 294 293 293 292 292 292 294 294 296 298 299 299 300 302 304 309 309 307 303 300 298 297 296 298 299 301 302 305 305 306 307 304 304 303 304 302 303 302
294 293 294 294 294 294 296 295 298 293 293 294 293 292 292 292 292 292 294 295 295 296 298 300 301 302 303 304 302 300 297 294 294 294 293 294 295 296 297 299 299 300 301 301 301 302 304 305 303
293 292 293 293 293 294 293 293 293 290 291 291 292 293 293 293 292 292 292 292 293 293 294 295 296 298 300 300 298 296 295 294 292 291 291 291 292 292 292 292 293 293 295 295 296 298 299 299 301
291 294 293 291 291 289 291 289 292 290 289 289 290 291 292 291 291 290 290 290 291 291 292 293 293 294 295 296 296 296 293 289 289 289 290 290 291 290 291 291 291 291 291 291 291 292 293 296 294
294 294 293 292 291 290 289 288 293 289 288 289 290 291 292 292 291 289 289 288 289 290 291 291 291 291 292 292 292 291 289 289 289 290 289 289 290 290 289 290 290 289 289 290 290 290 290 290 289
293 292 290 290 290 284 290 289 291 288 290 290 291 291 291 290 289 288 288 288 288 289 289 289 289 288 289 290 290 289 289 289 289 289 288 288 288 288 288 288 288 288 288 288 288 289 288 288 288
292 291 286 284 283 283 285 285 292 292 291 291 290 290 291 290 288 287 286 286 286 286 287 288 288 287 288 289 289 289 289 289 288 288 288 287 287 286 286 287 286 286 286 286 287 287 286 286 286
290 293 288 281 281 284 284 283 290 291 291 291 293 292 291 289 288 287 287 286 286 286 287 287 286 286 287 287 287 288 288 288 288 287 287 286 286 285 285 285 285 285 285 285 285 286 285 285 285
289 287 292 283 280 284 287 288 292 289 288 289 290 290 289 289 288 287 287 286 286 286 286 286 286 286 286 287 287 287 288 287 286 286 286 286 285 284 284 284 284 284 284 283 283 284 283 284 284
291 294 286 287 281 280 282 283 288 286 288 287 287 288 289 289 288 288 287 286 286 286 286 287 287 286 286 287 287 287 287 287 286 286 285 285 284 283 283 283 283 282 282 282 282 282 283 282 283
288 288 288 290 287 283 281 284 291 291 291 288 289 290 290 289 289 288 288 287 286 286 286 286 286 286 286 287 287 286 286 286 286 285 284 284 283 282 281 281 281 281 280 280 280 280 281 280 281
293 291 290 287 281 283 282 286 290 291 292 292 291 291 292 291 290 290 289 288 286 285 285 285 286 286 287 287 287 286 286 285 285 284 283 282 281 281 280 279 279 279 279 279 278 278 279 278 278
Wind_Speed
3 4 2 3 4 1 4 4 2 2 2 2 1 3 7 5 6 5 3 4 2 8 12 12 9 12 14 14 11 10 9 9 11 11 11 12 12 11 12 12 12 12 12 12 12 13 12 12 11
3 2 1 0 2 6 6 2 3 3 3 0 2 1 2 8 4 4 3 5 1 9 12 13 9 11 14 13 11 10 10 10 10 9 9 10 10 10 11 11 11 11 11 11 11 12 12 12 11
0 3 2 1 1 4 5 2 2 2 1 1 1 2 2 4 5 4 5 5 3 10 11 10 8 10 13 12 12 10 9 9 9 9 9 8 9 7 9 10 10 10 10 10 10 11 12 11 11
2 3 3 2 7 3 3 2 0 2 3 0 1 5 4 5 5 7 4 6 4 6 9 9 7 8 10 12 12 11 11 9 9 9 9 8 9 12 11 11 10 10 10 9 9 11 11 11 9
1 1 2 4 4 3 1 1 1 2 1 2 1 5 5 4 4 6 6 4 4 6 8 8 6 5 9 10 11 11 11 11 9 10 10 10 11 10 10 10 9 8 8 9 9 10 12 11 10
1 2 3 6 5 3 2 1 2 2 1 3 1 4 5 6 7 7 6 6 5 4 4 6 7 5 6 8 10 9 10 11 10 10 11 12 12 8 7 6 5 7 7 8 9 10 10 10 11
1 1 2 4 7 5 3 1 3 3 3 5 2 4 6 11 10 6 7 7 7 5 3 3 6 7 5 5 6 10 10 9 8 8 10 9 10 10 8 7 7 7 7 8 9 9 10 10 11
2 0 5 3 8 5 3 2 1 2 4 1 3 3 4 9 11 4 7 9 10 9 7 5 2 5 6 8 5 5 7 7 7 6 5 10 7 9 8 6 7 7 7 9 9 8 9 9 10
1 3 4 6 7 5 2 4 2 1 2 2 4 6 6 9 5 4 4 7 6 7 8 7 6 4 6 6 5 5 4 5 4 3 8 9 5 7 6 8 7 7 9 9 8 8 8 6 5
2 3 3 2 3 5 3 1 1 3 1 3 6 9 8 8 8 8 8 8 9 9 8 7 7 5 6 4 5 5 6 7 7 7 8 6 5 5 5 5 8 6 7 8 8 8 5 2 4
1 1 3 3 3 1 3 2 1 2 2 4 4 5 8 9 10 9 8 8 9 9 7 8 7 6 5 4 3 1 1 2 4 7 4 3 4 4 3 3 3 3 3 3 4 3 2 4 3
3 1 2 2 4 3 3 2 2 2 5 5 8 7 7 9 9 9 9 9 10 10 10 10 8 6 5 4 4 3 2 1 3 1 2 2 3 3 3 3 4 4 3 3 3 1 2 3 3
3 2 3 2 5 4 1 4 0 3 6 7 8 7 8 7 7 7 7 7 9 9 10 11 10 7 4 5 3 2 2 2 5 5 6 6 2 1 3 3 3 2 3 3 3 2 2 3 1
2 2 4 4 2 4 5 3 6 5 6 6 5 7 7 8 8 6 10 10 11 11 12 11 10 9 1 5 6 5 6 8 8 8 7 8 5 4 3 1 2 4 0 2 2 2 4 3 2
1 5 6 4 2 4 6 4 6 5 5 4 4 5 6 8 8 9 9 8 9 9 10 11 11 9 9 13 11 9 8 10 8 7 11 11 8 6 5 3 5 5 4 4 3 2 2 2 4
2 3 4 4 2 3 6 3 7 1 8 2 2 3 4 7 7 8 8 8 8 8 8 7 7 12 14 13 10 9 10 9 8 8 8 12 11 9 8 6 5 4 4 3 2 2 2 2 2
3 6 6 2 1 2 7 2 7 3 5 3 2 3 4 5 7 7 8 8 9 9 8 9 11 12 13 14 12 12 12 10 9 9 9 13 12 12 10 8 6 6 4 4 1 2 1 1 1
7 6 5 6 3 3 6 9 7 2 2 3 4 4 5 5 7 6 8 8 8 8 9 9 9 10 12 10 10 9 10 10 10 11 11 13 10 12 10 8 9 8 7 6 6 4 4 4 5
2 4 7 3 2 4 11 13 8 4 5 6 6 6 7 6 5 5 6 6 7 8 9 9 10 8 7 8 9 9 11 10 11 11 15 14 13 13 11 9 10 9 8 9 9 4 5 5 6
7 9 13 4 3 5 9 14 7 6 4 5 7 7 7 8 8 7 8 8 9 9 10 10 11 10 8 7 8 8 9 10 10 10 13 14 14 14 12 11 10 11 8 11 11 11 6 5 8
12 14 11 9 3 4 5 14 11 4 5 7 7 7 7 9 10 8 9 10 10 10 9 9 10 11 10 12 10 11 11 10 9 10 10 12 14 14 14 14 12 12 10 10 11 11 12 7 7
15 13 8 7 5 9 3 7 5 8 10 11 11 11 11 9 7 7 8 9 8 9 8 10 10 10 9 8 9 12 10 11 9 9 9 10 13 14 13 14 13 12 9 11 10 10 10 9 8
5 6 10 7 11 5 8 7 3 6 12 14 15 14 12 10 9 7 7 7 7 7 8 9 11 12 11 11 11 11 13 10 8 8 11 11 11 12 12 12 12 11 9 10 11 10 10 8 6
15 9 6 3 3 9 15 13 8 8 10 17 18 17 16 14 11 8 6 5 7 6 7 8 11 12 11 12 13 14 14 11 8 8 8 7 7 7 10 10 9 10 9 9 8 8 9 8 7
6 10 5 6 7 8 3 9 11 6 9 16 24 22 18 15 13 11 9 8 7 7 8 8 10 12 11 13 13 13 13 12 11 8 7 7 6 6 9 9 9 8 8 8 7 7 7 7 7
17 18 7 9 7 3 2 9 5 3 6 2 17 19 19 17 14 13 12 11 10 9 8 9 10 12 11 11 11 10 10 7 8 8 7 6 6 6 7 7 7 8 8 8 7 5 6 6 6
10 12 3 5 2 2 7 5 6 6 6 7 15 19 20 18 17 16 13 11 10 9 9 9 10 11 11 11 9 9 9 9 9 9 8 6 5 5 6 6 6 7 7 7 7 5 7 7 7
6 12 6 6 6 7 4 5 8 11 14 10 15 19 19 18 18 15 14 13 11 10 9 9 10 11 11 10 9 8 9 8 8 8 8 7 6 5 5 5 5 5 6 7 7 6 6 7 6
7 9 5 3 4 4 3 6 4 10 17 20 20 21 22 20 19 17 15 13 12 11 11 11 11 12 11 10 10 10 8 8 7 7 7 6 5 4 4 5 5 5 6 6 6 6 6 8 8
11 8 15 8 7 4 2 5 4 4 10 16 17 19 20 20 19 17 15 15 14 14 13 13 12 12 12 11 10 10 9 8 7 7 6 5 5 4 4 4 4 5 5 6 7 7 7 9 10
Wind_Direction
317 335 290 235 218 168 104 97 346 123 149 49 47 325 51 29 15 46 62 171 21 168 165 174 167 166 146 135 136 134 132 127 122 115 122 126 110 105 102 91 81 79 73 59 52 52 49 45 40
347 278 220 214 223 148 106 88 119 64 56 56 149 195 98 70 48 88 131 152 222 170 167 171 175 165 141 140 146 144 144 139 130 125 119 114 115 115 112 106 99 89 78 67 52 46 44 38 34
230 336 264 52 59 108 117 138 91 79 64 249 154 354 23 43 60 47 33 166 141 159 172 165 173 163 143 148 157 153 149 142 140 137 134 128 124 125 122 110 99 89 79 69 53 45 39 35 32
276 173 138 254 110 87 74 102 339 172 144 61 357 106 114 21 11 7 24 133 136 152 176 146 181 176 161 176 170 159 149 146 146 140 132 131 133 107 105 113 99 85 76 64 51 42 35 32 32
27 231 141 124 110 122 202 311 270 172 100 97 308 95 75 60 31 44 93 93 104 144 171 176 199 206 196 194 173 164 163 162 166 157 145 132 125 118 107 104 96 90 84 65 52 42 34 30 32
167 281 191 175 143 159 193 291 232 177 104 110 132 120 77 52 32 37 51 63 59 121 163 187 188 229 226 212 176 172 180 174 183 184 164 157 137 126 109 92 89 78 71 60 53 42 41 35 31
55 256 122 148 151 176 150 270 215 103 143 84 19 146 116 44 28 41 61 63 65 72 108 172 203 217 259 260 212 181 196 187 195 204 173 174 135 127 104 80 72 69 70 66 67 44 43 36 36
60 107 151 182 185 163 129 197 46 18 87 11 329 147 143 5 353 59 75 57 58 44 29 10 249 228 229 232 241 225 199 194 206 201 195 141 132 120 108 112 75 62 78 75 86 60 58 39 32
247 206 184 178 177 144 142 186 116 12 261 50 41 51 0 346 354 62 63 49 37 33 21 7 345 300 245 242 239 223 244 240 237 214 127 155 182 154 156 96 91 71 87 85 85 77 64 53 60
263 246 174 144 150 150 146 263 34 227 131 144 121 77 40 37 40 47 33 17 14 8 1 358 342 326 311 249 233 242 244 232 221 213 185 198 179 139 106 106 100 94 99 107 106 106 90 16 14
143 278 152 159 163 179 157 254 180 265 171 49 9 64 40 43 45 43 35 18 355 346 351 352 337 316 279 263 233 194 202 283 249 241 232 220 165 144 134 146 138 136 125 117 127 142 50 50 17
215 178 205 129 160 168 204 120 201 265 57 58 74 69 49 41 36 25 15 5 355 347 348 344 340 313 275 238 211 186 166 198 275 310 112 170 134 144 171 181 167 166 169 167 156 181 108 73 38
222 182 210 215 178 237 236 231 103 89 100 100 93 71 54 45 33 29 13 9 357 357 351 349 340 330 289 218 177 147 106 62 52 36 20 6 33 184 174 166 188 200 188 202 173 174 199 145 92
105 254 264 268 240 212 223 141 186 125 141 98 80 64 52 40 24 23 18 8 2 355 359 356 349 342 32 178 106 85 68 64 58 50 45 37 33 21 8 300 232 244 26 13 5 17 343 354 5
63 284 284 225 209 216 182 171 155 119 164 113 78 56 41 30 29 26 13 7 359 4 3 4 350 38 88 71 67 67 65 67 57 47 37 39 38 54 60 25 38 33 36 43 52 24 57 24 349
248 241 255 121 166 131 208 192 153 2 215 168 88 69 52 40 26 20 10 8 13 19 15 17 36 75 78 76 74 71 64 65 55 50 48 45 47 56 67 62 46 47 66 56 53 25 33 41 25
205 259 222 252 180 166 226 148 149 14 183 157 130 100 73 56 42 30 19 16 17 21 21 39 49 70 82 85 82 75 71 63 63 59 44 42 48 53 59 55 35 27 66 64 43 83 348 1 343
203 216 225 236 161 215 224 248 162 90 178 147 135 116 98 80 43 30 31 34 40 40 44 47 51 67 82 80 82 77 73 70 60 50 46 47 47 50 58 49 36 42 43 30 29 22 15 31 341
172 209 239 166 139 231 243 255 193 175 171 167 159 143 127 111 97 80 73 72 80 70 71 66 74 76 103 95 92 81 76 70 63 55 47 45 45 48 51 50 40 52 49 36 34 15 15 28 351
215 237 243 266 190 236 252 256 234 194 199 199 170 155 144 131 109 94 87 82 73 70 68 68 69 70 76 89 94 88 84 70 72 67 57 51 52 48 49 53 51 44 45 41 32 27 10 31 19
224 225 232 256 156 231 272 263 217 182 173 164 178 151 151 140 129 113 90 77 75 67 66 72 75 78 83 99 106 106 103 91 79 64 59 50 51 50 52 53 50 47 43 42 34 25 31 23 28
234 215 222 210 220 257 225 281 203 177 183 190 179 179 166 155 141 118 103 88 82 79 80 82 79 79 75 85 94 99 98 97 86 83 80 64 52 50 48 50 49 51 49 43 38 32 30 20 26
258 155 200 203 226 260 194 258 172 173 205 194 187 181 173 166 153 134 106 84 72 74 81 88 90 88 88 93 99 98 97 99 99 92 85 75 63 55 50 47 49 50 45 41 37 33 34 34 33
134 108 78 95 193 247 226 218 198 195 214 181 186 184 176 171 162 147 128 125 106 98 94 96 98 93 96 97 94 97 104 108 107 100 91 81 72 65 53 51 49 49 44 33 32 27 30 23 23
187 160 189 219 208 246 150 209 254 193 182 191 182 182 177 171 170 164 163 156 143 132 124 117 111 100 98 98 98 101 104 107 104 98 89 89 78 61 48 46 43 41 35 32 22 22 19 14 5
196 190 190 213 205 173 132 226 232 87 123 160 182 174 171 175 175 177 175 172 166 160 148 135 124 114 106 101 104 107 109 104 98 93 90 83 78 64 51 46 41 33 25 19 12 9 4 355 350
184 215 169 107 2 235 201 233 232 154 167 166 175 175 180 179 179 181 180 180 173 172 165 147 133 125 126 131 130 123 119 116 113 108 102 97 89 80 58 44 36 28 18 9 359 360 353 345 341
213 149 179 225 210 233 210 250 223 200 195 182 182 188 184 182 183 182 182 182 182 178 162 159 154 149 151 147 142 137 132 129 122 113 106 104 98 82 63 43 31 20 12 3 352 348 343 337 335
163 190 206 205 204 224 241 231 212 192 185 185 193 193 187 185 183 184 186 186 183 178 177 174 171 165 168 163 156 153 147 137 127 121 116 113 108 94 67 40 17 7 1 353 341 339 334 331 326
235 222 194 204 185 243 298 246 161 190 188 187 187 189 188 187 188 189 185 184 185 186 185 185 183 181 179 171 169 165 159 151 144 136 133 131 123 103 62 35 18 2 350 341 337 334 334 327 324